TimeMST,TemperatureF,Dew PointF,Humidity,Sea Level PressureIn,VisibilityMPH,Wind Direction,Wind SpeedMPH,Gust SpeedMPH,PrecipitationIn,Events,Conditions,WindDirDegrees,DateUTC
12:53 AM,32.0,16.0,52,30.28,10.0,WSW,5.8,-,N/A,,Clear,240,2013-11-25 07:53:00
1:53 AM,27.0,16.0,63,30.30,10.0,South,9.2,-,N/A,,Clear,180,2013-11-25 08:53:00
2:53 AM,30.0,16.0,56,30.29,10.0,South,9.2,-,N/A,,Clear,190,2013-11-25 09:53:00
3:53 AM,30.9,15.1,52,30.28,10.0,SSW,10.4,-,N/A,,Clear,200,2013-11-25 10:53:00
4:53 AM,28.9,15.1,56,30.32,10.0,Calm,Calm,-,N/A,,Clear,0,2013-11-25 11:53:00
5:53 AM,26.1,14.0,60,30.37,10.0,South,4.6,-,N/A,,Clear,190,2013-11-25 12:53:00
6:53 AM,28.9,14.0,54,30.37,10.0,SSW,9.2,-,N/A,,Clear,200,2013-11-25 13:53:00
7:53 AM,28.0,14.0,56,30.39,10.0,South,9.2,-,N/A,,Clear,190,2013-11-25 14:53:00
8:53 AM,30.0,15.1,54,30.40,10.0,SSW,8.1,-,N/A,,Clear,210,2013-11-25 15:53:00
9:53 AM,37.0,14.0,39,30.41,10.0,SW,4.6,-,N/A,,Clear,230,2013-11-25 16:53:00
10:53 AM,42.1,14.0,32,30.40,10.0,WNW,4.6,-,N/A,,Clear,300,2013-11-25 17:53:00
11:53 AM,43.0,17.1,35,30.39,10.0,NW,4.6,-,N/A,,Clear,310,2013-11-25 18:53:00
12:53 PM,45.0,18.0,34,30.37,10.0,Variable,3.5,-,N/A,,Clear,0,2013-11-25 19:53:00
1:53 PM,46.9,19.0,33,30.37,10.0,NW,5.8,-,N/A,,Clear,320,2013-11-25 20:53:00
2:53 PM,48.0,19.9,33,30.35,10.0,Calm,Calm,-,N/A,,Clear,0,2013-11-25 21:53:00
3:53 PM,48.0,19.0,32,30.35,10.0,NNW,3.5,-,N/A,,Clear,330,2013-11-25 22:53:00
4:53 PM,42.1,19.9,41,30.38,10.0,Calm,Calm,-,N/A,,Clear,0,2013-11-25 23:53:00
5:53 PM,28.0,18.0,66,30.43,10.0,Calm,Calm,-,N/A,,Clear,0,2013-11-26 00:53:00
6:53 PM,25.0,18.0,75,30.44,10.0,Calm,Calm,-,N/A,,Clear,0,2013-11-26 01:53:00
7:53 PM,26.1,18.0,71,30.45,10.0,SSE,3.5,-,N/A,,Clear,160,2013-11-26 02:53:00
8:53 PM,25.0,18.0,75,30.45,10.0,SSE,4.6,-,N/A,,Clear,150,2013-11-26 03:53:00
9:53 PM,30.0,19.9,66,30.42,10.0,SSW,6.9,-,N/A,,Clear,200,2013-11-26 04:53:00
10:53 PM,28.0,18.0,66,30.42,10.0,East,3.5,-,N/A,,Clear,100,2013-11-26 05:53:00
11:53 PM,24.1,17.1,75,30.42,10.0,SSE,4.6,-,N/A,,Clear,150,2013-11-26 06:53:00